Flag for U.S.A. Weather past 2 weeks in Key West, Florida, U.S.A.

Now
83 °F

Passing clouds.


Feels Like: 93 °F
Forecast: 81 / 88 °F
Wind: 5 mph from Southwest

Location: Key West International Airport

Current Time: Apr 27, 2015 at 3:19:13 AM

Latest Report: Apr 27, 2015 at 2:53 AM


Visibility: 10 mi

Pressure: 29.80 "Hg

Humidity: 85%

Dew point: 78 °F

Location of Key WestLocation

Historic Weather in Key West — Graph

°F

Key West temperature yesterday

Maximum temperature yesterday: 89 °F (at 5:53 PM)
Minimum temperature yesterday: 82 °F (at 1:53 AM)
Average temperature yesterday: 85 °F

Past Weeks' High & Low Weather Summary

 TemperatureHumidityPressure
High89 °F (Apr 26, 5:53 PM)94% (Apr 22, 3:53 AM)30.15 "Hg (Apr 22, 3:53 AM)
Low72 °F (Apr 22, 4:53 AM)59% (Apr 26, 5:53 PM)29.80 "Hg (Apr 26, 5:53 PM)
Average82 °F78%29.99 "Hg
* Reported Apr 12 1:53 AM — Apr 27 1:53 AM, Key West, Weather by CustomWeather, © 2015

Note: Actual official high and low records may vary slightly from our data, if they occured in-between our weather recording intervals... More about our weather records

Advertising

Key West weather history for previous 24 hours

 ConditionsComfort  
Time TempWeatherWind HumidityBarometerVisibility
1:53 AM
Mon, Apr 27
83 °FPassing clouds.No wind85%29.82 "Hg10 mi
12:53 AM83 °FPassing clouds.5 mph85%29.84 "Hg10 mi
11:53 PM
Sun, Apr 26
83 °FClear.6 mph88%29.85 "Hg10 mi
10:53 PM84 °FClear.5 mph83%29.85 "Hg10 mi
9:53 PM84 °FClear.5 mph83%29.83 "Hg10 mi
8:53 PM84 °FSunny.6 mph80%29.82 "Hg10 mi
7:53 PM85 °FSunny.8 mph80%29.81 "Hg10 mi
6:53 PM87 °FSunny.8 mph75%29.80 "Hg10 mi
5:53 PM89 °FSunny.10 mph59%29.80 "Hg10 mi
4:53 PM88 °FSunny.8 mph61%29.80 "Hg10 mi
3:53 PM87 °FSunny.14 mph67%29.82 "Hg10 mi
2:53 PM87 °FSunny.14 mph67%29.84 "Hg10 mi
1:53 PM87 °FSunny.13 mph65%29.85 "Hg10 mi
12:53 PM86 °FSunny.10 mph72%29.86 "Hg9 mi
11:53 AM86 °FSunny.10 mph75%29.88 "Hg8 mi
10:53 AM85 °FSunny.13 mph83%29.88 "Hg7 mi
9:53 AM84 °FSunny.9 mph83%29.88 "Hg8 mi
8:53 AM83 °FSunny.7 mph85%29.87 "Hg9 mi
7:53 AM83 °FClear.6 mph82%29.86 "Hg10 mi
6:53 AM82 °FPassing clouds.7 mph79%29.85 "Hg10 mi
5:53 AM83 °FClear.12 mph77%29.83 "Hg10 mi
4:53 AM83 °FClear.14 mph74%29.83 "Hg10 mi
3:53 AM82 °FClear.10 mph82%29.85 "Hg10 mi
Weather by CustomWeather, © 2015

See weather overviewHow to use our weather pages